{"data":{"norad_id":65560,"epoch":"2026-05-24T23:26:06.925056Z","epoch_age_seconds":77151,"freshness":"FRESH","line1":"1 65560U 25201L   26144.97646904  .00001216  00000+0  17124-3 0  9991","line2":"2 65560  49.9861 146.5397 0009105 255.2543 104.7386 14.84078443 38370","mean_motion":14.84078443,"eccentricity":0.0009105,"inclination_deg":49.9861,"raan_deg":146.5397,"arg_perigee_deg":255.2543,"mean_anomaly_deg":104.7386,"bstar":0.00017124,"rev_number":3837,"period_min":97.029911511221,"perigee_km":610.11136459376,"apogee_km":622.848562084,"semimajor_km":6994.6169633389,"source":"CELESTRAK","updated_at":"2026-05-25T13:38:05.517043Z"}}